DW7210 Weather Reports


Display with metric or nautical units.
time (UTC)temp
F
wind
direction
speed
MPH
gust
MPH
rain 1hr
in
rain 24hr
in
rain mn
in
humidity
%
barometer
mb
20260831183316 95 225 2.0 5.0 0.00 0.00 0.00 24 1019.1
20260831182316 93 0.0 0.0 0.00 0.00 0.00 25 1018.9
20260831181316 93 0.0 0.0 0.00 0.00 0.00 25 1019.0
20260831180316 92 225 4.0 5.0 0.00 0.00 0.00 26 1018.9
20260831175336 92 0.0 2.0 0.00 0.00 0.00 27 1019.0
20260831174336 90 225 1.0 2.0 0.00 0.00 0.00 28 1019.1
20260831173316 91 225 1.0 3.0 0.00 0.00 0.00 28 1019.0
20260831172316 90 270 1.0 2.0 0.00 0.00 0.00 29 1018.9
20260831171336 88 315 3.0 5.0 0.00 0.00 0.00 30 1018.9
20260831170337 89 270 2.0 4.0 0.00 0.00 0.00 30 1019.0
20260831165336 88 293 2.0 3.0 0.00 0.00 0.00 31 1019.0
20260831164316 87 0.0 0.0 0.00 0.00 0.00 32 1019.0
20260831163316 86 293 1.0 2.0 0.00 0.00 0.00 33 1018.8
20260831162316 86 293 3.0 4.0 0.00 0.00 0.00 33 1019.1
20260831161316 85 0.0 0.0 0.00 0.00 0.00 35 1018.7
20260831160316 85 0.0 1.0 0.00 0.00 0.00 35 1018.7
20260831155316 83 0.0 0.0 0.00 0.00 0.00 37 1018.6
20260831154316 83 0.0 0.0 0.00 0.00 0.00 37 1018.5
20260831153316 83 0.0 1.0 0.00 0.00 0.00 37 1018.6
20260831152316 81 0.0 0.0 0.00 0.00 0.00 39 1018.2
20260831151316 81 0.0 1.0 0.00 0.00 0.00 40 1018.1
20260831150316 80 0.0 0.0 0.00 0.00 0.00 40 1018.0
20260831145316 80 0.0 0.0 0.00 0.00 0.00 40 1018.0
20260831144316 79 0.0 0.0 0.00 0.00 0.00 41 1018.1
20260831143316 78 0.0 0.0 0.00 0.00 0.00 42 1017.9
20260831142316 78 338 1.0 3.0 0.00 0.00 0.00 42 1018.0
20260831141316 78 0.0 0.0 0.00 0.00 0.00 42 1018.0
20260831140316 77 0.0 0.0 0.00 0.00 0.00 42 1017.8
20260831135316 76 0.0 0.0 0.00 0.00 0.00 42 1017.7
20260831134316 76 0.0 0.0 0.00 0.00 0.00 45 1017.5
20260831133316 73 0.0 0.0 0.00 0.00 0.00 46 1017.1
20260831132316 73 0.0 0.0 0.00 0.00 0.00 45 1017.2
20260831131316 73 0.0 0.0 0.00 0.00 0.00 46 1017.0
20260831130316 73 0.0 0.0 0.00 0.00 0.00 46 1016.9
20260831125316 73 0.0 0.0 0.00 0.00 0.00 45 1017.0
20260831124316 73 0.0 0.0 0.00 0.00 0.00 45 1016.9
20260831123316 74 0.0 0.0 0.00 0.00 0.00 43 1016.5
20260831122336 74 0.0 0.0 0.00 0.00 0.00 44 1016.6
20260831121316 73 0.0 0.0 0.00 0.00 0.00 44 1016.5
20260831120316 74 0.0 0.0 0.00 0.00 0.00 44 1016.4
20260831115316 74 0.0 0.0 0.00 0.00 0.00 43 1016.8
20260831114336 75 0.0 0.0 0.00 0.00 0.00 41 1016.7
20260831113416 76 0.0 0.0 0.00 0.00 0.00 40 1016.8
20260831112316 75 0.0 0.0 0.00 0.00 0.00 41 1016.5
20260831111316 76 0.0 0.0 0.00 0.00 0.00 40 1016.8
20260831110336 76 0.0 0.0 0.00 0.00 0.00 39 1016.6
20260831105316 77 0.0 0.0 0.00 0.00 0.00 39 1016.7
20260831104316 77 0.0 0.0 0.00 0.00 0.00 38 1016.6
20260831103316 77 0.0 0.0 0.00 0.00 0.00 38 1016.5
20260831102336 78 0.0 0.0 0.00 0.00 0.00 37 1016.3
20260831101316 80 0.0 0.0 0.00 0.00 0.00 35 1016.5
20260831100336 81 0.0 0.0 0.00 0.00 0.00 33 1016.6
20260831095316 81 0.0 0.0 0.00 0.00 0.00 32 1016.7
20260831094356 82 0.0 0.0 0.00 0.00 0.00 31 1016.8
20260831093316 81 135 5.0 7.0 0.00 0.00 0.00 32 1016.6
20260831092316 81 0.0 0.0 0.00 0.00 0.00 32 1016.7
20260831091316 81 0.0 0.0 0.00 0.00 0.00 31 1016.6
20260831090336 81 0.0 0.0 0.00 0.00 0.00 31 1016.6
20260831085316 81 0.0 0.0 0.00 0.00 0.00 31 1016.1
20260831084336 82 0.0 0.0 0.00 0.00 0.00 32 1016.1
20260831083316 82 0.0 0.0 0.00 0.00 0.00 30 1016.2
20260831082316 83 0.0 0.0 0.00 0.00 0.00 29 1016.2
20260831081316 85 0.0 0.0 0.00 0.00 0.00 28 1016.4
20260831080316 86 0.0 0.0 0.00 0.00 0.00 27 1016.4
20260831075316 87 0.0 0.0 0.00 0.00 0.00 27 1016.5
20260831074316 87 113 3.0 5.0 0.00 0.00 0.00 26 1017.0
20260831073316 87 113 3.0 6.0 0.00 0.00 0.00 26 1017.0
20260831072316 87 113 2.0 4.0 0.00 0.00 0.00 26 1017.1
20260831071316 87 113 3.0 4.0 0.00 0.00 0.00 25 1017.2
20260831070316 87 113 3.0 5.0 0.00 0.00 0.00 25 1017.3
20260831065316 87 113 1.0 2.0 0.00 0.00 0.00 25 1017.3
20260831064316 87 0.0 1.0 0.00 0.00 0.00 25 1017.3
20260831063336 87 0.0 0.0 0.00 0.00 0.00 25 1017.2
20260831062316 85 0.0 2.0 0.00 0.00 0.00 26 1016.7
20260831061316 85 0.0 0.0 0.00 0.00 0.00 27 1016.6
20260831060316 85 0.0 1.0 0.00 0.00 0.00 27 1016.6
20260831055316 85 315 3.0 5.0 0.00 0.00 0.00 26 1016.3
20260831054316 86 0.0 0.0 0.00 0.00 0.00 25 1016.3
20260831053336 86 0.0 0.0 0.00 0.00 0.00 25 1016.3
20260831052316 86 0.0 0.0 0.00 0.00 0.00 25 1016.0
20260831051316 86 0.0 0.0 0.00 0.00 0.00 25 1016.1
20260831050336 86 0.0 0.0 0.00 0.00 0.00 25 1016.1
20260831045316 87 0.0 0.0 0.00 0.00 0.00 25 1016.2
20260831044316 87 0.0 0.0 0.00 0.00 0.00 25 1016.1
20260831043316 87 0.0 0.0 0.00 0.00 0.00 24 1016.0
20260831042316 88 0.0 0.0 0.00 0.00 0.00 24 1016.0
20260831041316 88 0.0 0.0 0.00 0.00 0.00 24 1015.9
20260831040316 88 0.0 0.0 0.00 0.00 0.00 24 1015.8
20260831035316 88 0.0 0.0 0.00 0.00 0.00 24 1015.6
20260831034316 88 0.0 0.0 0.00 0.00 0.00 24 1015.5
20260831033316 88 0.0 0.0 0.00 0.00 0.00 24 1015.3
20260831032336 89 0.0 0.0 0.00 0.00 0.00 24 1015.5
20260831031316 88 0.0 0.0 0.00 0.00 0.00 24 1015.4
20260831030316 89 0.0 0.0 0.00 0.00 0.00 25 1015.2
20260831025316 89 0.0 0.0 0.00 0.00 0.00 24 1014.5
20260831024316 89 0.0 0.0 0.00 0.00 0.00 24 1014.4
20260831023316 89 0.0 0.0 0.00 0.00 0.00 24 1014.3
20260831022316 90 0.0 0.0 0.00 0.00 0.00 23 1014.2
20260831021316 90 0.0 0.0 0.00 0.00 0.00 23 1014.1
20260831020316 91 0.0 0.0 0.00 0.00 0.00 22 1014.4
20260831015316 91 0.0 0.0 0.00 0.00 0.00 22 1014.4
20260831014316 92 0.0 0.0 0.00 0.00 0.00 21 1014.3
20260831013316 92 158 2.0 4.0 0.00 0.00 0.00 20 1014.2
20260831012316 93 158 3.0 5.0 0.00 0.00 0.00 20 1014.1
20260831011336 94 135 3.0 4.0 0.00 0.00 0.00 19 1014.3
20260831010356 95 0.0 0.0 0.00 0.00 0.00 19 1014.3
20260831005316 96 135 2.0 4.0 0.00 0.00 0.00 18 1014.6
20260831004316 96 225 3.0 5.0 0.00 0.00 0.00 18 1014.5
20260831003316 97 0.0 1.0 0.00 0.00 0.00 18 1014.7
20260831002316 97 225 2.0 5.0 0.00 0.00 0.00 17 1014.0
20260831001316 97 0.0 0.0 0.00 0.00 0.00 18 1014.1
20260831000318 97 158 5.0 8.0 0.00 0.00 0.00 18 1014.0
20260830235316 97 135 4.0 6.0 0.00 0.00 0.00 18 1014.4
20260830234316 97 90 3.0 6.0 0.00 0.00 0.00 18 1014.4
20260830233316 98 68 7.0 13.0 0.00 0.00 0.00 16 1014.3
20260830232336 97 0.0 0.0 0.00 0.00 0.00 16 1014.8
20260830231316 98 135 3.0 6.0 0.00 0.00 0.00 17 1015.0
20260830230316 98 113 1.0 5.0 0.00 0.00 0.00 15 1015.0
20260830225336 98 113 1.0 3.0 0.00 0.00 0.00 17 1015.9
20260830224336 99 0.0 1.0 0.00 0.00 0.00 18 1016.0
20260830223316 98 0.0 0.0 0.00 0.00 0.00 18 1015.8
20260830222336 96 0 2.0 5.0 0.00 0.00 0.00 19 1015.8
20260830221316 96 113 7.0 11.0 0.00 0.00 0.00 19 1015.9
20260830220316 97 135 4.0 8.0 0.00 0.00 0.00 19 1016.3
20260830215316 97 113 5.0 6.0 0.00 0.00 0.00 18 1016.6
20260830214336 98 0.0 0.0 0.00 0.00 0.00 20 1016.7
20260830213316 98 0.0 0.0 0.00 0.00 0.00 21 1016.9
20260830212316 99 203 4.0 7.0 0.00 0.00 0.00 20 1017.3
20260830211336 99 180 4.0 5.0 0.00 0.00 0.00 20 1017.4
20260830210316 98 225 2.0 6.0 0.00 0.00 0.00 21 1017.5
20260830205316 97 0.0 0.0 0.00 0.00 0.00 21 1017.3
20260830204316 97 135 5.0 7.0 0.00 0.00 0.00 22 1017.7
20260830203316 96 0.0 0.0 0.00 0.00 0.00 23 1017.8
20260830202316 96 135 3.0 4.0 0.00 0.00 0.00 23 1018.1
20260830201316 97 113 3.0 5.0 0.00 0.00 0.00 22 1018.2
20260830200316 96 0.0 2.0 0.00 0.00 0.00 24 1018.5
20260830195316 95 113 1.0 3.0 0.00 0.00 0.00 24 1018.4
20260830194316 96 293 2.0 6.0 0.00 0.00 0.00 24 1018.7
20260830193316 96 0.0 2.0 0.00 0.00 0.00 25 1018.7
20260830192316 96 0.0 0.0 0.00 0.00 0.00 24 1018.9
20260830191316 96 315 3.0 4.0 0.00 0.00 0.00 24 1019.0
20260830190316 95 180 2.0 3.0 0.00 0.00 0.00 25 1019.2
20260830185316 95 23 1.0 3.0 0.00 0.00 0.00 25 1019.3
20260830184316 95 180 1.0 3.0 0.00 0.00 0.00 24 1019.4